Regional Weather Roundup
Issued by NWS Bismarck, ND

Home | Current Version | Previous Version | Text Only | Print | Product List | Glossary On
Versions: 1 2 3 4 5 6 7 8 9 10 11 12 13 14 15 16 17 18 19 20 21 22 23 24 25 26 27 28 29 30 31 32 33 34 35 36 37 38 39 40 41 42 43 44 45 46 47 48 49 50
000
ASUS43 KBIS 180010
RWRBIS

NWR BROADCAST TEXT
NATIONAL WEATHER SERVICE BISMARCK ND
700 PM CDT THU APR 17 2014

NOTE: "FAIR" INDICATES FEW OR NO CLOUDS BELOW 12,000 FEET WITH NO
SIGNIFICANT WEATHER AND/OR OBSTRUCTIONS TO VISIBILITY.


CITY           SKY/WX    TMP DP  RH WIND       PRES   REMARKS
WILLISTON      MOSUNNY   44  28  53 S15       30.04S
MINOT          CLOUDY    41  18  39 E14       30.13F
MINOT AFB      CLOUDY    40  21  46 E14       30.13F
BISMARCK       CLOUDY    45  20  36 S16       30.15F
DICKINSON      PTSUNNY   43  27  53 SE16      30.02F
GARRISON         N/A     42  23  46 SE12      30.11F
HETTINGER ARPT PTSUNNY   46  28  49 SE15G23   30.03F
JAMESTOWN      CLOUDY    43  15  32 E6        30.21S
$$

CITY           SKY/WX    TMP DP  RH WIND       PRES   REMARKS
GRAND FORKS    PTSUNNY   39  13  34 E6        30.29F
GRAND FORKS AF MOSUNNY   39  10  30 NE8       30.29F
DEVILS LAKE    CLOUDY    39  12  33 SE10      30.23F
FARGO          SUNNY     44  13  28 NW7       30.27S
$$

CITY           SKY/WX    TMP DP  RH WIND       PRES   REMARKS
ABERDEEN       SUNNY     44  21  40 S12       30.24S
MOBRIDGE       PTSUNNY   45  23  42 S17       30.13F
BUFFALO          N/A     51  31  46 SE21      29.90F
RAPID CITY     SUNNY     53  36  52 SE21G28   29.97F
GLASGOW        PTSUNNY   56  30  37 SE14      29.84F
SIDNEY         CLOUDY    46  30  53 SE15      30.01S
WOLF POINT     CLOUDY    54  31  41 E20       29.91S
GLENDIVE       PTSUNNY   54  34  47 E15       29.93S
MILES CITY     CLOUDY    60  29  30 VRB3      29.85F
BAKER          MOSUNNY   53  31  42 SE24G30   29.93F
$$

CITY           SKY/WX    TMP DP  RH WIND       PRES   REMARKS
BILLINGS       PTSUNNY   62  26  25 CALM      29.81S
GREAT FALLS    CLOUDY    56  32  40 SE8       29.73F
REGINA         CLOUDY    39  25  56 SE23G35   30.05S
ESTEVAN        PTSUNNY   39  21  48 SE17      30.10S
$$




USA.gov is the U.S. government's official web portal to all federal, state and local government web resources and services.